Regional Weather Roundup
Issued by NWS

Home | Current Version | Previous Version | Text Only | Print | Product List | Glossary On
Versions: 1 2 3 4 5 6 7 8 9 10 11 12 13 14 15 16 17 18 19 20 21 22 23 24 25 26 27 28 29 30 31 32 33 34 35 36 37 38 39 40 41 42 43 44 45 46 47 48
000
ASUS45 KBOU 262007
RWRCO

WEATHER ROUNDUP FOR COLORADO
NATIONAL WEATHER SERVICE DENVER/BOULDER CO
100 PM MST MON JAN 26 2015

NOTE: "FAIR" INDICATES FEW OR NO CLOUDS BELOW 12000 FEET WITH NO
SIGNIFICANT WEATHER AND/OR OBSTRUCTIONS TO VISIBILITY.

COZ001>005-013-030-031-262100-
...NORTHWEST COLORADO...

CITY           SKY/WX    TMP DP  RH WIND       PRES   REMARKS
CRAIG          SUNNY     35  25  66 SW3       30.40F
HAYDEN         SUNNY     39  25  56 E9        30.39F
MEEKER         SUNNY     38  24  57 CALM      30.39F
MOUNT WERNER   NOT AVBL
STEAMBOAT SPGS SUNNY     34  23  63 CALM      30.41F
WALDEN         SUNNY     37  23  56 CALM      30.43F
$$

COZ006>008-011-262100-
...WEST CENTRAL VALLEYS...

CITY           SKY/WX    TMP DP  RH WIND       PRES   REMARKS
GRAND JUNCTION SUNNY     52  26  36 S9        30.34F
MONTROSE       SUNNY     52  24  33 NW5       30.37F
EAGLE          NOT AVBL
RIFLE          SUNNY     50  24  36 NE3       30.37F
DELTA          SUNNY     52  25  35 CALM      30.36F
NUCLA          SUNNY     50  23  34 CALM      30.36F
$$

COZ017>023-064>068-262100-
...SOUTHWEST COLORADO...

CITY           SKY/WX    TMP DP  RH WIND       PRES   REMARKS
DURANGO        SUNNY     52  24  33 CALM      30.33F
CORTEZ         SUNNY     57  26  30 SW9       30.31F
PAGOSA SPRINGS SUNNY     57  17  20 S3        30.36F
TELLURIDE      SUNNY     56  11  16 CALM      30.43F
WOLF CREEK PAS NOT AVBL
$$

COZ009-010-012-014-032>034-037-058>063-262100-
...CENTRAL COLORADO...

CITY           SKY/WX    TMP DP  RH WIND       PRES   REMARKS
ASPEN          SUNNY     41  23  48 NW8       30.41F
BUENA VISTA    SUNNY     55  18  23 SE3       30.39F
COPPER MTN     SUNNY     41  10  28 W6        30.59F
BERTHOUD PASS  FAIR      30  25  80 NW12      30.60F WCI  21
COTTONWOOD PAS SUNNY     54  10  17 SE7       30.47F
GUNNISON       SUNNY     18  12  79 SE3       30.53F
KREMMLING      SUNNY     32  19  59 CALM      30.51F
LEADVILLE      SUNNY     49  15  25 NW6       30.46F
MONARCH PASS   SUNNY     37  12  35 E21       30.65F
SALIDA         SUNNY     58  16  19 CALM      30.45F
SUNLIGHT       SUNNY     45  18  33 E3        30.54F
WILKERSON PASS SUNNY     43  10  26 SW3       30.56F
$$

COZ069>075-262100-
...SAN LUIS VALLEY/SANGRE DE CRISTO MOUNTAINS...

CITY           SKY/WX    TMP DP  RH WIND       PRES   REMARKS
ALAMOSA        SUNNY     48  21  34 NW6       30.41F
LA VETA PASS   NOT AVBL
SAGUACHE       SUNNY     37  23  56 CALM      30.43F
$$

COZ035-036-038>040-262100-
...NORTHERN COLORADO FRONT RANGE...

CITY           SKY/WX    TMP DP  RH WIND       PRES   REMARKS
DENVER INTL AP SUNNY     70  18  13 NW9       30.23F
DMNS CITY PARK   N/A     71  15  11 E8G14     30.21F
AURORA         SUNNY     69  19  15 NE12      30.25F
FRONT RANGE AP NOT AVBL
ERIE MUNI ARPT SUNNY     72  16  11 NE8       30.21F
BOULDER MUN AP SUNNY     72  21  15 E5        30.21F
CENTENNIAL     SUNNY     68  18  14 NE7       30.26F
BROOMFIELD     NOT AVBL
FORT COLLINS   SUNNY     68  34  28 SE3       30.21F
LONGMONT       SUNNY     76  21  13 NE6       30.22F
$$

COZ041-046-047-076>085-087-088-262100-
...PIKES PEAK/PALMER DIVIDE AND SOUTHERN FOOTHILLS...

CITY           SKY/WX    TMP DP  RH WIND       PRES   REMARKS
COLO. SPRINGS  SUNNY     63  22  20 S7        30.29F
A. F. ACADEMY  SUNNY     62  19  18 N14       30.29F
ELLICOTT       SUNNY    N/A N/A N/A W5        30.28F
FALCON         SUNNY     63  18  17 N14       30.33F
FORT CARSON    SUNNY     63  25  24 S7        30.27F
LIMON          SUNNY     65  22  19 NW20      30.24F
MONUMENT HILL  SUNNY     57  25  28 N7        30.32F
TRINIDAD       SUNNY     61  28  28 S6        30.30F
$$

COZ042>045-048>051-090-091-262100-
...NORTHEAST COLORADO...

CITY           SKY/WX    TMP DP  RH WIND       PRES   REMARKS
GREELEY ARPT   SUNNY     66  30  26 SW6       30.18F
AKRON          SUNNY     60  31  33 W12       30.19F
BURLINGTON     SUNNY     66  29  24 NW15      30.18F
WRAY           SUNNY     68  30  24 NW14G20   30.14F
STERLING       SUNNY     70  36  28 N10       30.14F
HOLYOKE        SUNNY     70  28  21 N21       30.13F
FORT MORGAN    SUNNY     61  31  32 SW7       30.20F
$$

COZ086-089-092>099-262100-
...SOUTHEAST COLORADO...

CITY           SKY/WX    TMP DP  RH WIND       PRES   REMARKS
PUEBLO         SUNNY     66  25  21 SW8       30.23F
LA JUNTA       SUNNY     66  33  29 SW9       30.22F
LAMAR          SUNNY     67  34  29 W13       30.18F
SPRINGFIELD      N/A     67  28  23 N16G24    30.22F
$$


USA.gov is the U.S. government's official web portal to all federal, state and local government web resources and services.